Погода в Тамбове

Поиск расширенной информации на нашем сайте:

Полезная информация:

Новости сайта



02.01.2020
Опубликован Долгосрочный прогноз погоды по городам России и ближнего зарубежья на январь 2020 года.
Карты: Прогноз на январь и февраль 2020 года, Сравнение прогнозируемой аномалии приземной температуры воздуха на январь 2020 года по разным моделям.




Погода в Тамбове - сегодня

Время (UTC), дата Ветер
(°,м/с) 
Видим.   Явления Облачность Т
(°С)
Тd
(°С)
f(%) Тe
(°С)
Pmin
(гПа)
dP
(гПа)
Po
(мм)
O2
(г/м3)
Тmin Tmax R s Состояние
почвы
09 19.09.20 310 (СЗ) 8-12{12}  10 км  в посл. час ливневой дождь  10/10 500 м 
[Sc]
+10.1 +4.8 70 +8  1009.5  745  289           
12 19.09.20 310 (СЗ) 7-11  10 км  {ливн. осадки}  9/9 1020 м кучево-дожд. 
[Cb calv]
+12.4 +3.4 54 +11  1009.9  0.5  746  287           
15 19.09.20 300 (СЗ) 4{13}  10 км  в посл. час ливневой дождь  10/10 800 м кучево-дожд. 
[Cb calv]
+11.6 +5.1 64 +11  1011  746  288    +13.4  0.0     
18 19.09.20 280 (З) 10 км  {ливн. осадки}  9/6 1440 м средняя 
[Sc|Ac trans]
+9.3 +4.8 73 +8  1011.9  0.8  747  290           
21 19.09.20 270 (З) 10 км    9/6 1500 м средняя 
[Sc|Ac trans]
+8.4 +4.1 74 +7  1011.5  -0.4  747  291           
00 20.09.20 270 (З) 10 км    8/0 средняя 
[Ac trans]
+6.1 +3.7 85 +5  1011.1  -0.6  746  293           
03 20.09.20 280 (З) 10 км    9/4 1000 м средняя 
[Sc|Ac trans]
+6.4 +4.1 85 +5  1011.3  0.3  746  293  +5.9         
06 20.09.20 310 (СЗ) 6{10}  10 км    4/4 1000 м 
[Cu hum]
+9.6 +4.5 70 +8  1012.8  1.6  748  290           
09 20.09.20 320 (СЗ) 8-13{14}  10 км    8/8 1140 м 
[Cu hum]
+12 +1.7 49 +10  1013.8  748  289           
12 20.09.20 320 (СЗ) 7-12{14}  10 км    8/8 1200 м 
[Cu hum]
+13.5 -0.5 38 +12  1015  1.3  749  288           
15 20.09.20 310 (СЗ) 5-10{14}  10 км    3/3 1000 м 
[Sc]
+12.4 -0.7 40 +12  1016.1  1.1  750  289    +14.7       
18 20.09.20 270 (З) 2{10}  10 км    ясно 
+6.3 +0.1 64 +6  1018.8  2.3  752  296           
21 20.09.20 290 (З) 10 км    ясно 
+5.3 +0.4 71 +5  1019.8  0.9  752  297           
00 21.09.20 280 (З) 10 км    ясно 
+4.2 +0.8 79 +4  1020.5  0.6  753  299           
03 21.09.20 250 (З) 10 км    6/0 средняя 
[Ac trans]
+4 +0.9 80 +3  1020.5  753  299  +2.3        сухая 
06 21.09.20 250 (З) 10 км    8/0 верхняя 
[Ci sp]
+7.6 +2.9 72 +6  1020.8  0.5  753  295           
09 21.09.20 270 (З) 7-11{13}  10 км    9/0 верхняя 
[Ci sp]
+13.1 +3 50 +12  1019.4  -1.1  752  289           
12 21.09.20 270 (З) 8-12{13}  10 км    6/3 1000 м верхняя 
[Cu hum|Ci sp]
+16.1 +2.9 41 +15  1017.4  -1.8  751  285           
15 21.09.20 270 (З) 4{12}  10 км    6/0 средняя, верхняя 
[Ac As|Ci sp]
+14.4 +0.9 40 +14  1017.6  0.2  751  287    +16.2       
18 21.09.20 240 (ЮЗ) 10 км    8/0 средняя, верхняя 
[Ac As|Ci sp]
+12.4 +3.2 53 +12  1017.7  751  289           
21 21.09.20 250 (З) 10 км    8/0 средняя, верхняя 
[Ac As|Ci sp]
+10.8 +3.6 61 +10  1017.8  751  291           
00 22.09.20 250 (З) 10 км    9/9 1410 м 
[Sc]
+9.3 +3.8 68 +8  1017.9  751  292           
03 22.09.20 250 (З) 10 км    8/0 средняя, верхняя 
[Ac As|Ci fib]
+8.2 +4.3 76 +7  1018.6  0.7  752  293  +8         
06 22.09.20 240 (ЮЗ) 10 км    8/0 средняя, верхняя 
[Ac trans|Ci fib]
+13.1 +7.4 68 +13  1019  0.5  752  288  +8         
09 22.09.20 240 (ЮЗ) 10 км    9/3 1000 м верхняя 
[Cu hum|Ci fib]
+19.3 +9 51 +19  1018  -0.6  752  281           
Время (UTC), дата Ветер
(°,м/с) 
Видим.   Явления Облачность Т
(°С)
Тd
(°С)
f(%) Тe
(°С)
Pmin
(гПа)
dP
(гПа)
Po
(мм)
O2
(г/м3)
Тmin Tmax R s Состояние
почвы

Для получения пояснительной информации подведите курсор к названию столбца.

ПОГОДА в Тамбове - архив

Всё, что Вы хотите узнать о погоде в Тамбове - удобно и подробно!

Выберите нужную дату (начиная с 1 января 2019* года) и нажмите кнопку "Найти".
Будут отображены архивные сводки погоды по пункту Тамбов, начиная с указанной даты.


Отображать данные в формате CSV (для использования в таблицах Excel)


Внимание! Наш архив погоды предназначен исключительно для личного некоммерческого использования в познавательных целях. Если Вам необходимы официальные справки о состоянии погоды (для производственных, юридических, коммерческих и т.п. целей), обращайтесь в органы Росгидромета.

*Примечание: данная дата относится к архиву по метеостанциям СССР (Россия, СНГ, Балтия).
Архив по метеостанциям Зарубежной Европы и Азии (кроме Китая) хранится 10 дней, по другим регионам земного шара (Китай, Африка, Америка, Австралия, Океания) - 1 день.

Тамбов - район местоположения метеостанции


Название, широта, долгота, высота метеостанции:
Тамбов 52.8°ш. 41.3°д. 128 м над ур. моря [Российская Федерация]

Дополнительная информация

В oтличие oт бoльшинства пoгoдных сайтoв мы публикуем пoдрoбную метеoинфoрмацию в детальнoм прoфессиoнальнoм фoрмате.

Характеристики температуры и влажнoсти вoздуха измеряются на высoте 2 м в тени вдали oт зданий и деревьев.
Скoрoсть ветра измеряется на высoте 10 м (на урoвне рoста челoвека скoрoсть ветра ниже в 1.5-2 раза). Если метеoстанция нахoдится в гoрoде или в лесу, тo скoрoсть ветра занижена на 2-4 м/с пo сравнению с oткрытым местoм. Скoрoсть ветра над акватoриями крупных рек и oзёр, а также на вершинах хoлмoв на 2-5 м/с выше, чем в oбычных услoвиях.
Атмoсфернoе давление в разных тoчках местнoсти мoжет значительнo oтличаться oт давления на метеoстанции, в зависимoсти oт услoвий рельефа (при пoдъёме на 10 м давление пoнижается примернo на 1 мм рт.ст.).